Weather History for Wittering, United Kingdom

Change the Weather History Date:

Friday, January 18, 2013

  Actual Average Record
Temperature  
Mean Temperature 28 °F -  
Max Temperature 30 °F 43 °F 55 °F (2007)
Min Temperature 26 °F 34 °F 26 °F (2001)
Degree Days  
Heating Degree Days 37    
Moisture  
Dew Point 27 °F    
Average Humidity 93    
Maximum Humidity 100    
Minimum Humidity 86    
Precipitation  
Precipitation 0.00 in - - ()
Sea Level Pressure  
Sea Level Pressure 29.64 in    
Wind  
Wind Speed 8 mph ()    
Max Wind Speed 15 mph    
Max Gust Speed -    
Visibility 2.2 miles    
Events Snow    
Averages and records for this station are not official NWS values.
T = Trace of Precipitation, MM = Missing Value Source: Averaged Metar Reports

Daily Weather History Graph

Daily Weather History Graph

Search for Another Location

Airport:

Trip Planner

Search our weather history database for the weather conditions in past years. The results will help you decide how hot, cold, wet, or windy it might be!

Date:

Astronomy

Jan. 18, 2013 Rise Set
Actual Time 8:02 AM GMT 4:22 PM GMT
Civil Twilight 7:23 AM GMT 5:01 PM GMT
Nautical Twilight 6:40 AM GMT 5:44 PM GMT
Astronomical Twilight 5:59 AM GMT 6:25 PM GMT
Moon 10:29 AM GMT (1/18) No Moon Set
Length of Visible Light 9h 38m
Length of Day
8h 19m
Waxing Crescent, 45% of the Moon is Illuminated
Jan 18
Waxing Crescent
Jan 18
First Quarter
Jan 27
Full
Feb 3
Last Quarter
Feb 10
New

Hourly Weather History & Observations

Time (GMT) Temp. Windchill Dew Point Humidity Pressure Visibility Wind Dir Wind Speed Gust Speed Precip Events Conditions
12:50 AM 28.4 °F 22.2 °F 28.4 °F 100% 29.86 in - ESE 5.8 mph - N/A   Mostly Cloudy
1:50 AM 28.4 °F 22.2 °F 28.4 °F 100% 29.86 in 1.7 mi ESE 5.8 mph - N/A   Mostly Cloudy
2:50 AM 29 °F - 29 °F 98% 29.86 in 2 mi ESE 6.9 mph - -   Mist
2:50 AM 28.4 °F 21.2 °F 28.4 °F 100% 29.83 in 2.5 mi ESE 6.9 mph - N/A   Mostly Cloudy
3:50 AM 30.2 °F 24.3 °F 28.4 °F 93% 29.80 in - ESE 5.8 mph - N/A   Mostly Cloudy
4:50 AM 30.2 °F 23.4 °F 28.4 °F 93% 29.80 in - ESE 6.9 mph - N/A   Mostly Cloudy
5:50 AM 30 °F - 29 °F 92% 29.80 in 2 mi ESE 6.9 mph - -   Mist
5:50 AM 30.2 °F 23.4 °F 28.4 °F 93% 29.77 in 2.5 mi ESE 6.9 mph - N/A   Mostly Cloudy
6:50 AM 30.2 °F 21.3 °F 26.6 °F 86% 29.74 in 3.1 mi SE 10.4 mph - N/A Snow Snow Grains
7:50 AM 28.4 °F 18.5 °F 26.6 °F 93% 29.71 in 3.7 mi ESE 11.5 mph - N/A   Haze
8:50 AM 29 °F - 27 °F 91% 29.74 in 3 mi ESE 12.7 mph - -   Light Haze
8:50 AM 30.2 °F 20.2 °F 26.6 °F 86% 29.71 in 3.1 mi ESE 12.7 mph - N/A   Haze
9:50 AM 28.4 °F 18.0 °F 26.6 °F 93% 29.68 in 5.0 mi ESE 12.7 mph - N/A   Haze
10:50 AM 30.2 °F 20.2 °F 26.6 °F 86% 29.65 in 4.3 mi ESE 12.7 mph - N/A   Haze
11:50 AM 29 °F - 26 °F 86% 29.65 in 3 mi ESE 15.0 mph - -   Light Haze
11:50 AM 30.2 °F 19.3 °F 26.6 °F 86% 29.62 in 3.1 mi ESE 15.0 mph - N/A   Haze
12:50 PM 30.2 °F 19.3 °F 26.6 °F 86% 29.59 in 1.4 mi ESE 15.0 mph - N/A Snow Snow Grains
1:50 PM 28.4 °F 17.5 °F 26.6 °F 93% 29.56 in - SE 13.8 mph - N/A Snow Snow
2:50 PM 27 °F - 26 °F 95% 29.59 in 1 mi ESE 12.7 mph - - Snow Snow
2:50 PM 26.6 °F 15.7 °F 26.6 °F 100% 29.56 in 0.9 mi ESE 12.7 mph - N/A Snow Snow
3:50 PM 26.6 °F 17.5 °F 26.6 °F 100% 29.53 in 0.7 mi ESE 9.2 mph - N/A Snow Snow
4:50 PM 28.4 °F 18.5 °F 26.6 °F 93% 29.53 in 0.7 mi ESE 11.5 mph - N/A Snow Snow
5:50 PM 28 °F - 27 °F 94% 29.55 in 1 mi East 10.4 mph - - Snow Snow
5:50 PM 28.4 °F 19.1 °F 26.6 °F 93% 29.53 in 0.7 mi East 10.4 mph - N/A Snow Snow
6:50 PM 28.4 °F 20.4 °F 26.6 °F 93% 29.50 in 1.5 mi East 8.1 mph - N/A Snow Light Snow
7:50 PM 28.4 °F 21.2 °F 28.4 °F 100% 29.50 in - ENE 6.9 mph - N/A Snow Snow Grains
8:50 PM 30 °F - 28 °F 88% 29.53 in 3 mi East 9.2 mph - - Snow Snow Grains
8:50 PM 30.2 °F 21.9 °F 28.4 °F 93% 29.50 in - East 9.2 mph - N/A Snow Snow Grains
9:50 PM 30.2 °F 21.3 °F 28.4 °F 93% 29.50 in - ENE 10.4 mph - N/A Snow Snow Grains
10:50 PM 30.2 °F 21.9 °F 28.4 °F 93% 29.50 in 1.4 mi ENE 9.2 mph - N/A Snow Light Snow
11:50 PM 30 °F - 29 °F 93% 29.51 in 2 mi ENE 10.4 mph - - Snow Light Snow
11:50 PM 30.2 °F 21.3 °F 28.4 °F 93% 29.47 in - ENE 10.4 mph - N/A Snow Light Snow